User: anonymous
Location: Unspecified
(0.0000°N, 0.0000°E)
Time: 01:26:47
(UTC+02:00)
Language:

Helios 1A Rocket - Orbit

View from above orbital plane
View from above orbital plane
View from above satellite
View from above satellite

Ground track
Ground track

The orbit data is extracted from the following two-line orbital elements,

1 23608U 95033D   14244.48727882  .00001771  00000-0  17836-3 0  2975
2 23608 098.2868 109.9794 0018329 016.3885 343.7922 14.92477245 35402
Epoch (UTC): 01 September 2014 11:41:40
Eccentricity: 0.0018329
inclination: 98.2868°
perigee height: 577 km
apogee height: 603 km
right ascension of ascending node: 109.9794°
argument of perigee: 16.3885°
revolutions per day: 14.92477245
mean anomaly at epoch: 343.7922°
orbit number at epoch: 3540

The dashed part of the orbit path shows where the satellite is in the earth's shadow,  

DLR